GEFSSE_500_meanwind_078.txt.gz
Wind_Speed
3 2 1 1 1 1 1 1 1 2 3 4 4 5 5 5 5 5 6 6 6 6 6 6 7 6 6 6 6 6 5 5 5 5 5 5 6 6 6 6 6 6 7
2 1 1 0 1 2 2 2 2 1 1 2 3 3 3 3 3 3 3 3 4 4 3 4 4 4 4 4 4 4 4 4 4 4 4 4 5 6 6 6 6 6 6
1 1 1 1 2 3 3 4 3 3 3 2 2 2 2 2 2 2 2 1 1 1 1 1 1 1 1 2 2 2 3 3 3 3 3 4 4 5 5 5 5 5 6
1 1 1 2 4 4 5 5 5 5 5 4 3 3 3 3 3 2 2 2 2 2 2 2 2 2 1 1 1 0 1 1 2 2 3 3 3 4 4 5 5 5 6
2 3 3 4 5 6 6 6 7 6 6 6 5 5 5 5 4 4 4 4 4 4 5 5 5 5 4 4 3 3 2 2 2 3 3 3 3 4 5 5 5 6 6
4 4 5 6 7 7 7 8 8 8 8 8 8 7 7 6 6 6 6 6 6 6 6 6 7 7 7 7 6 5 5 5 4 4 4 4 4 5 5 6 6 6 7
5 6 6 7 8 9 9 9 10 10 10 10 10 10 9 9 8 8 8 7 7 7 8 8 8 9 9 9 9 9 8 7 7 7 6 6 6 6 7 7 8 8 8
6 7 8 10 11 11 12 12 12 13 13 13 13 13 12 11 10 10 10 9 9 9 10 10 10 10 10 10 11 11 11 10 10 10 9 9 9 9 9 9 9 9 9
8 9 11 12 13 13 14 14 14 15 15 15 15 15 14 14 13 13 12 12 12 12 12 12 12 12 12 12 13 13 13 13 13 13 12 12 12 11 11 11 11 11 11
10 11 13 14 15 15 15 16 17 17 17 18 18 18 17 17 17 16 16 15 15 15 15 14 14 14 14 14 15 15 15 15 16 16 16 15 15 14 14 14 14 13 13
12 14 15 16 16 17 18 19 19 19 19 21 21 22 22 21 21 19 18 18 17 17 17 17 16 16 17 17 17 17 18 18 18 18 18 18 18 18 17 17 17 16 16
15 17 18 18 19 19 20 20 21 21 21 21 22 23 23 22 22 22 22 21 20 20 19 19 19 19 18 18 18 18 19 19 19 19 19 20 21 21 21 20 20 19 19
18 19 19 19 20 20 20 21 22 22 23 22 23 24 24 23 23 24 24 24 24 23 23 23 22 21 20 20 20 19 20 20 20 20 20 20 21 23 23 24 23 23 22
20 21 21 21 20 20 21 22 23 23 24 24 24 24 23 23 23 24 26 26 25 24 24 24 23 22 21 22 22 22 21 21 21 21 21 21 22 24 25 25 26 26 25
22 22 21 20 21 20 21 22 22 24 24 24 24 23 23 23 23 25 26 27 27 26 25 25 24 24 24 23 23 24 22 23 23 23 23 23 24 24 26 27 26 27 28
23 22 21 21 22 21 21 22 23 23 22 23 24 25 24 23 24 24 24 25 25 25 25 26 25 26 26 26 25 25 24 23 24 24 25 25 25 25 26 27 28 27 29
21 22 21 21 22 21 21 21 20 21 20 20 21 22 22 22 23 25 25 24 25 25 25 26 26 26 27 27 26 27 27 26 26 26 26 27 28 27 27 28 29 29 29
21 21 20 20 19 18 19 19 19 19 20 20 20 22 22 23 24 25 26 25 25 26 26 26 27 28 28 28 27 28 28 29 29 28 29 29 29 29 29 30 30 31 31
19 19 19 18 18 17 17 18 19 20 20 21 22 23 24 25 25 25 26 26 26 27 28 28 28 29 29 29 29 29 29 30 31 31 30 30 30 31 31 31 32 33 33
17 17 17 17 17 17 17 18 18 19 20 21 23 24 25 26 27 27 27 27 28 29 29 29 30 31 32 32 32 32 32 32 33 33 33 33 32 32 33 33 33 34 34
16 16 16 17 17 17 18 19 19 20 21 23 24 25 26 26 27 28 28 28 29 30 30 31 31 32 33 33 33 34 34 34 35 35 35 35 35 34 34 34 34 35 35
14 15 15 16 17 18 19 19 20 22 23 24 26 26 27 27 28 28 29 29 29 30 31 31 32 33 33 34 34 35 35 36 37 37 37 37 37 36 36 35 35 35 36
14 15 17 17 17 18 19 20 22 23 24 25 27 27 28 28 29 29 29 29 30 30 30 31 32 32 33 34 34 35 36 37 37 37 38 39 39 39 38 37 36 37 36
15 16 17 17 17 18 20 21 23 24 25 26 27 28 28 29 29 29 29 30 30 31 31 31 32 33 33 34 34 35 36 36 37 37 38 39 40 40 40 39 38 38 37
15 16 16 17 18 20 21 23 23 24 25 26 27 27 28 28 28 29 29 30 30 31 31 32 33 34 34 35 35 36 36 37 37 38 39 39 40 41 41 40 40 39 39
15 16 17 19 20 21 22 23 23 24 24 25 26 27 27 28 28 28 29 30 31 32 32 33 34 35 35 36 37 37 38 38 38 39 39 40 41 41 42 41 41 41 40

GEFSSE_500_meanwind_084.txt.gz
Wind_Speed
1 1 1 1 1 1 2 3 4 4 4 4 4 4 3 3 2 2 2 2 2 2 3 3 3 4 4 4 4 4 4 5 5 5 4 4 4 5 6 6 5 6 6
3 2 2 2 2 2 3 4 4 5 5 6 5 5 5 5 4 4 3 3 2 2 2 2 2 2 3 3 3 3 3 4 4 4 4 3 3 4 5 5 5 5 5
4 4 4 4 3 4 4 5 6 6 6 6 6 7 7 6 6 6 5 5 4 4 3 3 3 3 3 3 3 3 3 2 3 3 2 2 2 3 4 4 4 4 4
5 5 5 5 5 5 5 7 7 8 7 8 8 8 8 8 8 8 7 7 6 6 6 5 5 4 4 4 4 3 3 2 2 2 1 1 1 1 2 3 4 4 3
6 6 6 6 6 7 7 8 9 9 9 9 9 10 10 10 10 10 9 9 9 8 8 7 7 6 6 6 6 5 5 4 3 2 2 1 1 1 1 2 3 3 3
7 7 8 8 8 8 9 9 10 11 11 11 11 11 12 12 12 12 12 11 11 10 10 9 9 9 8 8 8 7 7 6 5 4 4 3 2 2 2 2 3 3 3
7 8 8 8 9 10 10 11 12 12 13 13 13 13 13 14 14 14 14 13 13 12 12 11 11 11 11 11 10 10 9 8 7 6 6 5 4 4 3 3 3 3 3
7 7 8 9 10 11 12 13 13 13 14 14 15 15 15 16 16 16 15 15 14 14 14 14 14 13 13 13 12 12 12 11 10 9 8 8 7 6 5 5 5 5 5
7 9 10 11 12 12 13 14 14 15 15 16 16 17 17 18 19 19 18 17 17 16 17 17 16 15 15 14 14 14 14 13 12 12 11 10 10 9 8 8 7 7 7
9 11 11 13 14 14 15 16 16 17 17 18 18 18 18 19 20 20 20 20 20 19 19 19 18 17 17 16 16 16 16 15 14 13 13 13 13 12 11 11 10 9 9
10 12 12 14 15 16 17 17 18 19 19 19 20 21 21 21 21 20 20 21 21 21 21 21 20 20 19 18 18 18 18 18 17 16 15 15 15 15 15 14 13 12 12
13 13 14 14 16 18 19 20 20 21 21 21 21 23 23 23 22 21 21 22 21 21 21 22 22 22 21 21 20 20 20 21 20 19 17 17 17 17 18 18 17 16 15
14 15 15 15 18 20 20 21 21 22 21 22 23 24 24 24 24 22 23 23 22 22 21 22 23 23 23 23 22 22 22 22 22 20 18 19 19 19 19 20 20 19 18
16 17 17 19 20 21 22 22 22 23 23 23 24 25 24 24 23 24 23 23 22 21 20 20 22 24 25 24 23 23 22 22 23 22 19 19 21 22 21 22 22 22 21
17 19 19 20 22 22 23 22 23 23 23 23 22 22 23 22 22 23 22 22 21 20 20 21 23 24 25 26 25 24 22 22 22 22 21 20 21 23 23 24 24 24 24
17 19 20 21 22 22 23 22 22 22 22 22 20 19 21 22 21 21 21 21 21 21 22 23 23 23 23 25 25 24 25 25 24 24 24 23 23 23 23 24 25 25 25
18 19 20 21 22 22 22 21 21 21 21 20 20 19 20 21 21 22 21 21 22 23 24 24 24 24 23 23 24 25 25 25 25 25 25 25 24 23 24 24 25 26 25
19 20 21 20 21 21 20 20 21 21 21 20 19 20 21 22 22 22 23 23 23 23 24 25 25 24 24 24 24 24 25 25 25 25 26 26 26 26 26 26 26 27 27
18 20 20 20 20 20 20 20 20 20 20 20 20 20 21 22 22 23 23 23 23 24 24 24 24 24 24 25 25 25 25 25 25 26 26 27 28 28 27 28 27 28 29
18 18 18 18 19 19 19 19 19 19 19 20 20 20 21 21 22 23 24 23 24 24 24 24 25 25 26 26 27 27 27 26 27 27 27 28 29 29 29 29 29 29 30
17 17 17 17 18 18 18 19 19 19 19 20 20 20 21 21 22 23 24 24 24 24 25 25 25 26 26 27 27 28 28 28 29 29 29 29 29 30 31 31 31 30 30
15 16 16 17 17 17 17 18 18 19 20 20 20 21 21 22 22 23 23 24 25 25 25 25 26 26 27 27 28 28 29 30 31 30 31 31 31 31 32 33 33 32 32
14 14 14 15 16 17 17 17 18 19 19 20 20 20 21 22 22 23 24 24 25 25 25 25 26 26 27 28 28 28 29 29 31 31 31 31 32 32 33 34 34 35 34
12 13 14 15 15 16 16 16 18 19 19 20 20 21 21 22 23 23 24 25 25 25 26 26 27 27 28 28 29 29 29 30 31 31 32 32 32 32 33 35 35 35 36
12 12 13 14 15 16 17 18 18 19 20 20 21 22 23 23 24 24 24 25 26 26 27 27 28 29 29 30 31 31 31 32 32 32 33 33 33 33 34 35 36 37 37
11 12 13 14 15 16 17 18 19 20 21 21 22 23 24 25 25 25 25 26 27 28 28 29 30 30 31 32 32 33 33 33 33 34 34 34 35 35 36 36 36 37 38

GEFSSE_500_meanwind_090.txt.gz
Wind_Speed
2 2 2 2 2 2 2 3 4 5 5 6 6 6 7 7 7 7 7 7 7 6 6 6 6 6 6 6 6 6 6 6 6 6 6 6 5 6 6 7 8 7 8
1 1 1 1 1 1 1 2 3 4 5 6 6 6 6 6 7 7 7 7 7 7 6 6 6 6 5 5 5 5 5 5 5 5 5 5 5 5 5 6 7 7 7
1 1 0 0 0 0 0 1 2 4 5 6 6 6 7 7 7 7 7 7 7 7 7 7 6 6 5 5 5 5 4 4 4 4 4 4 4 4 5 5 6 6 6
2 2 1 1 1 1 1 2 3 3 5 5 6 7 7 7 7 7 8 8 8 8 8 8 8 7 6 6 5 5 4 4 4 3 3 3 2 3 3 4 5 6 6
3 2 2 2 2 2 2 3 4 4 5 6 6 7 7 8 8 8 8 9 9 9 9 9 9 8 8 7 6 6 5 4 4 3 2 1 1 1 2 3 4 5 5
3 3 4 4 4 3 3 4 5 5 6 6 7 8 7 8 8 9 9 10 11 11 10 10 10 10 9 8 8 7 6 6 5 4 3 2 1 1 2 3 4 4 5
4 4 4 4 5 4 4 5 6 6 6 7 7 8 8 8 9 10 10 11 12 12 12 12 12 12 11 10 9 8 7 7 6 6 5 4 3 3 3 3 4 4 5
5 5 5 5 4 4 5 6 7 7 8 8 8 9 10 10 11 11 12 12 13 13 14 14 14 14 13 11 10 10 9 8 8 7 8 7 6 6 5 5 5 5 5
7 6 5 5 4 5 5 6 7 8 9 10 11 11 12 12 13 13 14 14 14 15 15 16 16 16 15 14 13 12 11 10 10 10 10 10 9 8 8 7 7 7 6
7 7 6 5 4 5 6 7 8 10 11 12 12 13 13 13 14 15 15 16 16 16 16 17 17 17 17 16 15 14 13 12 12 12 12 12 12 11 10 10 9 9 8
8 7 5 4 5 6 7 8 9 10 11 13 14 14 14 15 16 17 17 17 17 17 18 18 18 19 19 18 18 16 15 14 14 15 15 14 14 13 13 12 12 11 11
9 7 5 5 5 7 8 9 10 12 13 14 14 15 15 16 17 17 18 18 18 18 18 19 19 19 20 20 19 18 17 15 15 15 16 17 16 16 15 15 15 14 14
9 7 5 5 7 8 9 10 12 14 15 16 16 16 16 16 16 17 18 18 19 19 19 18 19 19 20 21 21 21 20 19 18 17 17 18 18 17 17 18 17 17 16
9 7 6 7 8 9 10 11 13 14 16 16 16 16 16 16 15 16 17 16 17 18 18 18 19 19 19 20 22 22 22 22 21 20 19 20 20 19 20 19 18 18 18
9 8 9 9 10 10 12 12 13 14 15 15 15 15 15 15 15 15 16 16 17 18 17 17 17 17 18 19 21 21 21 22 22 22 21 20 20 20 20 20 21 21 20
9 8 8 8 9 10 11 11 12 13 14 14 15 14 14 15 15 14 15 15 16 17 17 17 17 17 18 19 20 21 22 23 23 23 24 23 22 21 21 21 21 22 22
8 8 8 8 9 10 11 11 12 13 14 14 14 14 14 14 14 14 14 14 14 15 16 17 17 18 18 19 20 21 21 22 23 23 24 24 24 24 24 24 22 23 24
7 7 7 8 9 10 12 12 12 12 13 13 13 13 13 13 13 13 14 14 14 15 16 17 17 18 19 20 21 21 21 22 22 22 23 24 24 25 25 24 24 24 25
6 5 6 8 10 11 12 12 11 11 12 12 12 12 12 12 13 13 14 14 15 16 17 17 18 19 19 20 21 21 22 22 22 22 23 24 24 25 25 24 25 25 26
5 5 7 9 9 10 10 10 10 10 11 12 12 12 13 13 13 13 13 14 15 16 16 17 18 18 19 20 20 21 22 23 23 23 24 25 25 25 25 25 26 27 28
4 5 6 7 7 8 8 8 9 10 10 10 10 11 12 12 13 13 14 14 15 16 16 17 18 18 19 19 20 21 22 23 24 25 25 26 26 26 27 27 27 28 29
3 5 5 6 6 7 8 8 9 9 10 10 10 11 12 13 13 13 14 14 15 15 16 17 18 18 18 19 19 21 22 24 24 25 26 27 28 28 29 29 29 29 30
3 4 5 6 6 7 7 8 9 9 9 10 10 11 12 12 12 13 14 15 15 16 17 17 18 19 20 20 20 21 22 23 25 26 26 27 28 29 30 31 31 31 31
3 3 4 5 6 6 6 7 8 9 9 10 10 11 12 12 13 14 16 16 17 18 19 19 20 21 22 23 23 24 24 24 25 26 27 28 28 30 31 32 32 33 33
2 3 4 4 4 5 6 7 8 9 10 11 11 12 12 14 15 17 18 19 20 21 22 22 23 23 24 25 26 27 27 27 28 28 29 30 30 30 31 32 34 34 34
1 2 2 3 4 5 7 8 8 9 10 11 12 13 15 16 17 19 20 21 22 23 24 24 25 26 27 27 28 29 30 31 31 30 31 32 32 33 33 33 34 35 36

GEFSSE_500_meanwind_096.txt.gz
Wind_Speed
2 1 1 1 1 3 5 6 7 7 7 7 7 7 7 8 8 8 8 8 8 8 8 8 8 8 8 8 8 8 7 7 7 7 7 7 7 7 7 7 8 8 8
2 3 3 2 1 2 3 4 5 5 5 5 5 5 5 5 6 6 6 6 7 7 7 7 7 7 7 7 7 6 6 6 6 6 6 6 6 6 6 6 7 7 8
4 4 3 2 2 1 2 2 3 3 3 3 4 4 4 4 4 4 5 5 6 6 6 6 6 6 6 6 5 5 5 5 5 5 5 5 5 4 5 5 6 6 7
5 6 5 4 3 2 1 1 1 2 2 2 3 3 4 4 4 4 4 5 5 5 5 5 5 5 5 5 4 4 3 3 3 4 4 4 4 4 4 5 5 6 6
6 7 7 6 5 4 2 1 0 1 2 3 3 4 4 4 5 5 5 5 5 5 5 5 5 5 4 4 3 2 2 2 1 2 2 2 3 3 3 4 4 5 6
8 8 8 7 6 5 4 3 2 2 3 3 4 4 5 6 6 6 6 6 6 6 6 6 6 6 5 5 4 2 2 1 1 0 0 1 1 2 3 3 4 5 5
11 10 10 9 8 6 5 4 3 3 4 4 5 6 6 7 8 8 8 8 8 8 8 8 7 7 7 6 5 4 4 3 3 2 2 2 2 2 3 3 4 4 5
12 11 10 9 9 7 6 5 4 4 4 5 6 6 7 8 9 10 11 11 11 10 10 10 9 9 8 8 7 6 6 5 5 4 4 4 4 4 4 4 4 5 5
13 12 11 9 9 8 7 6 5 5 5 6 7 8 8 9 10 11 12 12 12 13 13 12 12 10 10 9 8 8 7 7 7 7 6 6 6 6 6 6 6 6 6
14 12 11 10 9 8 8 7 6 6 6 7 8 9 9 10 11 12 13 14 14 14 15 15 14 12 11 10 10 9 9 9 9 9 8 8 8 8 8 8 8 8 8
15 13 11 10 9 9 8 7 6 6 7 8 9 10 10 11 12 13 14 15 15 16 16 16 15 14 13 12 11 11 11 11 11 11 11 10 10 10 10 10 10 10 10
15 13 12 10 10 9 8 8 7 7 8 8 10 11 11 12 13 13 14 15 16 17 17 17 16 15 15 14 13 13 13 13 13 13 13 13 13 12 13 13 13 12 12
15 14 13 12 11 10 10 9 8 8 9 9 11 11 12 13 13 13 14 16 16 16 16 16 16 16 16 15 15 14 14 14 14 15 15 15 15 14 14 15 16 16 16
15 14 14 13 12 11 10 10 9 9 9 11 11 11 12 13 13 14 14 15 16 16 16 16 16 16 16 16 15 15 15 16 16 16 17 17 16 16 16 17 17 18 18
15 14 13 14 13 11 10 10 9 10 11 11 12 12 12 13 14 15 15 14 15 15 15 15 15 16 16 16 16 15 15 16 17 17 18 18 18 19 18 18 18 19 19
15 14 13 13 12 11 10 8 8 9 10 11 11 12 12 13 14 14 15 14 14 14 14 14 15 15 15 15 15 15 15 16 16 17 17 18 19 20 20 20 19 19 20
16 15 14 13 12 11 10 8 8 9 11 11 11 11 12 13 13 13 14 14 14 14 14 14 15 14 15 14 15 15 16 16 16 17 17 18 18 20 20 21 20 21 21
15 15 14 14 12 10 9 8 8 9 10 10 10 11 11 12 12 12 12 12 13 14 14 14 14 15 15 16 16 17 17 18 18 18 19 19 19 19 20 21 21 21 23
15 15 14 12 11 10 8 7 7 7 7 8 9 10 10 10 10 10 11 12 12 13 14 14 15 15 16 16 17 18 18 19 19 19 20 20 20 20 21 22 22 23 24
15 15 13 10 9 7 6 6 5 5 6 7 8 8 8 9 10 10 11 11 12 12 13 14 14 15 16 17 18 18 19 19 20 21 21 21 22 22 22 23 23 24 25
12 12 10 9 6 5 4 4 4 4 5 6 6 7 8 9 9 10 11 11 12 12 13 13 14 15 16 17 18 18 19 20 20 21 21 22 22 23 24 24 25 26 26
11 9 7 7 6 5 4 3 3 4 5 6 6 6 7 7 8 9 10 11 11 12 13 14 15 16 17 17 18 19 20 21 21 22 22 22 23 23 24 25 26 27 28
9 7 7 7 6 5 4 3 2 2 4 4 5 6 7 8 9 9 10 11 12 13 14 15 16 17 18 19 19 20 21 22 23 23 23 24 24 24 25 26 27 28 29
8 8 8 8 6 5 3 2 2 2 3 4 5 6 7 8 8 9 10 12 13 13 14 15 17 18 19 19 20 21 22 23 24 25 26 26 27 27 27 28 28 29 30
8 8 8 8 6 4 3 2 2 2 3 4 5 6 6 7 8 9 11 12 13 14 16 16 17 18 19 20 21 22 23 24 25 26 27 28 28 29 29 30 30 31 32
8 8 7 7 5 4 3 2 2 2 3 4 4 5 6 7 9 10 12 14 15 16 17 18 19 20 21 22 22 23 24 25 26 27 28 30 30 31 31 32 32 33 33